Powrót do katalogu

FENGYUN 1C DEB

AktywnyPO
NORAD 30386·DEBRIS·🇨🇳 China

Wystrzelony May 10, 1999 z Taiyuan Satellite Launch Center

Loading…

Następne Przeloty (najbliższe 24 godziny)

TLE

ŚwieżeSource: Space-Track

Epoka: Sep 14, 2026, 02:34 UTC

1 30386U 99025ACZ 26257.10734729  .00000855  00000-0  94184-3 0  9997
2 30386  98.6710 125.1596 0302271 161.4437 352.1699 13.56349929965616

Śledź FENGYUN 1C DEB w czasie rzeczywistym z AllMySat

Download on the App Store